Retour au catalogue

SAOCOM 1-A

ActifScienceSSO
NORAD 43641·PAYLOAD·🇦🇷 Argentina

Lancé Oct 8, 2018 depuis Vandenberg Space Force Base

Loading…

Prochains Passages (prochaines 24 heures)

TLE

FraisSource: Space-Track

Époque: Sep 14, 2026, 14:06 UTC

1 43641U 18076A   26257.58750668 -.00000095  00000-0 -53646-5 0  9992
2 43641  97.8889  83.0513 0001392  82.4380 277.6991 14.82143868429347

Suivez SAOCOM 1-A en temps réel avec AllMySat

Download on the App Store